Content
SEND FEEDBACK

Daily
Averages
Monthly
Summary
Mauritania

PORT-ETIENNE, MAURITANIA


Home > Africa > Mauritania
Elevation: 10 feet     Latitude: 20 54N     Longitude: 017 06W

WEATHER
 
SELECT A DAY
Number of Records: 118,144;   Date Range: 7/1/96 - 9/15/14
 
SHARE

PRINT THIS DATA

[ ← Previous Day ]
WEATHER ALMANAC - FEBRUARY 13, 2013
[ Next Day → ]
[ °C ]   °F
Weather ElementAverageHighLow
Temperature68.3 °F83 °F (3:00 pm)60.8 °F (8:00 am)
Dewpoint51 °F57.2 °F (4:00 pm)40 °F (3:00 pm)
Humidity53.4 %73 % (11:00 pm)13 % (3:00 pm)
Barometer29.96 in30.03 in (12:00 pm)29.89 in (6:00 pm)
Wind Speed17.2 mph21.9 mph (9:00 am)
Weather ElementAverage
Visibility4.6 mi
Wind DirectionESE (110.6 °)

Weather ElementTotal
Precipitation---
Cooling Degree Days6.9 (Base 65)
Growing Degree Days21.9 (Base 50)
Averaged from 31 records on February 13, 2013
WEATHER CONDITIONS BREAKOUT
WIND DIRECTION BREAKOUT
WEATHER BY HOUR - FEBRUARY 13, 2013
[ °C ]   °F
Local TimeTemperatureDewpointHumidityBarometerVisibilityWind DirectionWind SpeedGust SpeedPrecipitationEventsConditions
12:00 AM66.2 °F51.8 °F60 %29.92 in3.7 miNNE (20°)19.6 mphWidespread Dust
1:00 AM66.2 °F50.0 °F56 %29.95 in3.7 miNorth (10°)18.4 mphWidespread Dust
2:00 AM64.4 °F48.2 °F56 %29.95 in3.7 miNorth (10°)18.4 mphWidespread Dust
3:00 AM64.0 °F51.0 °F53 %29.96 in4.0 miNorth17.3 mphWidespread Dust
3:00 AM64.4 °F48.2 °F56 %29.95 in3.7 miNorth (10°)18.4 mphWidespread Dust
4:00 AM62.6 °F50.0 °F63 %29.95 in3.7 miNorth (10°)15.0 mphWidespread Dust
5:00 AM62.6 °F46.4 °F55 %29.95 in3.7 miNorth (10°)17.3 mphWidespread Dust
6:00 AM62.6 °F48.2 °F59 %29.95 in3.7 miNNE (20°)20.7 mphWidespread Dust
6:00 AM63.0 °F50.0 °F53 %29.97 in4.0 miNorth (10°)20.7 mphWidespread Dust
7:00 AM62.6 °F48.2 °F59 %29.95 in5.0 miNNE (20°)20.7 mph
8:00 AM60.8 °F48.2 °F63 %29.98 in5.0 miNNE (30°)20.7 mph
9:00 AM62.0 °F51.0 °F58 %30.01 in5.0 miNorth (10°)20.7 mphMostly Cloudy
9:00 AM62.6 °F48.2 °F59 %29.98 in5.0 miNNE (30°)21.9 mph
10:00 AM64.4 °F50.0 °F59 %30.01 in5.0 miNNE (30°)21.9 mph
11:00 AM68.0 °F50.0 °F52 %30.01 in5.0 miNNE (30°)21.9 mph
12:00 PM71.6 °F51.8 °F50 %30.01 in5.0 miNNE (30°)17.3 mph
12:00 PM70.0 °F53.0 °F45 %30.03 in5.0 miNNE (20°)16.1 mphMostly Cloudy
1:00 PM73.4 °F50.0 °F44 %29.98 in5.0 miNNE (30°)15.0 mph
2:00 PM78.8 °F46.4 °F32 %29.95 in5.0 miNNE (20°)15.0 mph
3:00 PM83.0 °F40.0 °F13 %29.95 in5.0 miNorth13.8 mphScattered Clouds
3:00 PM82.4 °F41.0 °F23 %29.92 in5.0 miNNE (20°)15.0 mph
4:00 PM75.2 °F57.2 °F53 %29.92 in5.0 miNW (320°)11.5 mph
5:00 PM75.2 °F57.2 °F53 %29.92 in5.0 miNNW (330°)12.7 mph
6:00 PM73.4 °F55.4 °F53 %29.89 in5.0 miNNW (330°)15.0 mph
6:00 PM74.0 °F56.0 °F44 %29.93 in5.0 miNW (320°)16.1 mphScattered Clouds
7:00 PM69.8 °F55.4 °F60 %29.92 in5.0 miNNW (340°)15.0 mph
8:00 PM69.8 °F55.4 °F60 %29.92 in5.0 miNorth (350°)12.7 mph
9:00 PM67.0 °F56.0 °F60 %29.98 in5.0 miNNW (340°)13.8 mph
9:00 PM68.0 °F55.4 °F64 %29.95 in5.0 miNorth (360°)16.1 mph
10:00 PM66.2 °F55.4 °F68 %29.98 in5.0 miNorth (360°)17.3 mph
11:00 PM64.4 °F55.4 °F73 %29.98 in5.0 miNorth (10°)16.1 mph
Hourly data recorded from GQPP, located miles away from Port-Etienne, Mauritania







STORIES FROM OUR PARTNERS